Tracking 27380 objects as of 6-Jun-2023
HD Live streaming from Space Station
objects crossing your sky now

CZ-4 DEB

Track CZ-4 DEB now!
10-day predictions


NORAD ID: 27482
Int'l Code: 1990-081CU
Perigee: 858.6 km
Apogee: 872.3 km
Inclination: 98.8 °
Period: 102.1 minutes
Semi major axis: 7236 km
RCS: 0.0048 m2 (small)
Launch date: September 3, 1990
Source: People's Republic of China (PRC)
Launch site: Taiyaun Space Center, China (TSC)

Note: This is SATELLITE DEBRIS
Your satellite tracking list
Your tracking list is empty




NASA's NSSDC Master Catalog

Two Line Element Set (TLE):
1 27482U 90081CU  23155.46262115  .00000413  00000-0  25703-3 0  9992
2 27482  98.7639 141.4674 0009431 197.0236 313.6883 14.10312887148593
Source of the keplerian elements: AFSPC